Location: Mahannah Oil Field
(37.4664°N, 96.6003°W)
Time: 14:23:38
(UTC+00:00)

Vanguard 2 Rocket - Pass Details

Date: 26 January 2021
Orbit: 554 x 3325 km, 32.9° (Epoch: 06 March)

Event Time Altitude Azimuth Distance (km) Brightness Sun altitude
Rises 01:24:22 0° 276° (W) 5,048 12.1 -20.1°
Reaches altitude 10° 01:28:34 10° 270° (W) 3,580 11.1 -20.9°
Maximum altitude 01:36:16 41° 204° (SSW) 1,364 7.9 -22.4°
Enters shadow 01:39:08 24° 148° (SSE) 1,649 8.0 -23.0°
Drops below altitude 10° 01:41:04 10° 134° (SE) 2,228 - -23.3°
Sets 01:43:08 0° 126° (SE) 2,977 - -23.8°
